Weather History for KRCA - October, 2012

Change the Weather History Date:

Thursday, October 11, 2012

  Actual Average Record
Temperature  
Mean Temperature 40 °F -  
Max Temperature 47 °F 61 °F 82 °F (1996)
Min Temperature 32 °F 37 °F 27 °F (2006)
Degree Days  
Heating Degree Days 26    
Moisture  
Dew Point 30 °F    
Average Humidity 71    
Maximum Humidity 87    
Minimum Humidity 52    
Precipitation  
Precipitation 0.00 in - - ()
Sea Level Pressure  
Sea Level Pressure 30.24 in    
Wind  
Wind Speed 10 mph (NE)    
Max Wind Speed 14 mph    
Max Gust Speed -    
Visibility 10 miles    
Events      
Averages and records for this station are not official NWS values.
T = Trace of Precipitation, MM = Missing Value Source: NWS Daily Summary

Daily Weather History Graph

Daily Weather History Graph

Search for Another Location

Airport or City:

Trip Planner

Search our weather history database for the weather conditions in past years. The results will help you decide how hot, cold, wet, or windy it might be!

Date:

Astronomy

Oct. 11, 2012 Rise Set
Actual Time 7:02 AM MDT 6:14 PM MDT
Civil Twilight 6:33 AM MDT 6:43 PM MDT
Nautical Twilight 6:00 AM MDT 7:16 PM MDT
Astronomical Twilight 5:26 AM MDT 7:50 PM MDT
Moon 2:35 AM MDT (10/11) 3:59 PM MDT (10/11)
Length of Visible Light 12h 09m
Length of Day
11h 11m
Waning Crescent, 18% of the Moon is Illuminated
Oct 11
Waning Crescent
Oct 15
New
Oct 21
First Quarter
Oct 29
Full
Nov 6
Last Quarter

Hourly Weather History & Observations

Time (MDT) Temp. Windchill Dew Point Humidity Pressure Visibility Wind Dir Wind Speed Gust Speed Precip Events Conditions
12:55 AM 47.5 °F - 33.1 °F 57% 30.01 in 10.0 mi NNW 11.5 mph - N/A   Overcast
1:55 AM 45.7 °F 39.5 °F 33.8 °F 63% 30.04 in 10.0 mi North 13.8 mph - N/A   Overcast
2:55 AM 43.2 °F 36.6 °F 33.4 °F 69% 30.06 in 10.0 mi North 12.7 mph - N/A   Overcast
3:55 AM 39.7 °F 31.9 °F 34.2 °F 80% 30.09 in 10.0 mi North 13.8 mph - N/A   Scattered Clouds
4:32 AM 37.4 °F 29.3 °F 33.8 °F 87% 30.12 in 10.0 mi North 12.7 mph - N/A   Overcast
4:55 AM 37.8 °F 30.2 °F 32.9 °F 83% 30.13 in 10.0 mi North 11.5 mph - N/A   Overcast
5:55 AM 37.6 °F 29.6 °F 32.7 °F 83% 30.16 in 10.0 mi NNE 12.7 mph - N/A   Overcast
6:26 AM 37.4 °F 29.8 °F 32.0 °F 81% 30.18 in 10.0 mi NNE 11.5 mph - N/A   Overcast
6:35 AM 37.4 °F 29.3 °F 32.0 °F 81% 30.19 in 10.0 mi NNE 12.7 mph - N/A   Overcast
6:40 AM 37.4 °F 30.3 °F 32.0 °F 81% 30.20 in 10.0 mi NNE 10.4 mph - N/A   Overcast
6:45 AM 37.4 °F 29.8 °F 32.0 °F 81% 30.20 in 10.0 mi North 11.5 mph - N/A   Overcast
6:55 AM 36.5 °F 28.7 °F 31.3 °F 81% 30.21 in 10.0 mi North 11.5 mph - N/A   Overcast
7:55 AM 36.1 °F 29.9 °F 31.5 °F 83% 30.26 in 10.0 mi North 8.1 mph - N/A   Overcast
8:55 AM 37.0 °F 30.4 °F 29.1 °F 73% 30.29 in 10.0 mi NNE 9.2 mph - N/A   Overcast
9:10 AM 37.4 °F 32.1 °F 30.2 °F 75% 30.30 in 10.0 mi Variable 6.9 mph - N/A   Overcast
9:30 AM 37.4 °F 32.8 °F 30.2 °F 75% 30.32 in 10.0 mi NNE 5.8 mph - N/A   Overcast
9:55 AM 37.9 °F 32.7 °F 30.0 °F 73% 30.32 in 10.0 mi NNE 6.9 mph - N/A   Overcast
10:55 AM 39.0 °F 35.7 °F 29.3 °F 68% 30.33 in 10.0 mi Variable 4.6 mph - N/A   Overcast
11:55 AM 40.6 °F 37.5 °F 29.5 °F 64% 30.33 in 10.0 mi East 4.6 mph - N/A   Overcast
12:55 PM 41.7 °F 38.8 °F 29.5 °F 62% 30.33 in 10.0 mi SE 4.6 mph - N/A   Overcast
1:55 PM 43.0 °F 41.3 °F 29.3 °F 59% 30.31 in 10.0 mi Variable 3.5 mph - N/A   Overcast
2:55 PM 45.0 °F 43.5 °F 29.5 °F 55% 30.30 in 10.0 mi Variable 3.5 mph - N/A   Overcast
3:55 PM 46.0 °F 43.1 °F 29.5 °F 52% 30.30 in 10.0 mi South 5.8 mph - N/A   Mostly Cloudy
4:55 PM 45.9 °F 42.3 °F 29.3 °F 52% 30.30 in 10.0 mi SSE 6.9 mph - N/A   Partly Cloudy
5:55 PM 44.8 °F 39.9 °F 29.3 °F 55% 30.32 in 10.0 mi SSE 9.2 mph - N/A   Overcast
6:55 PM 43.3 °F 37.7 °F 28.9 °F 57% 30.32 in 10.0 mi SSE 10.4 mph - N/A   Overcast
7:55 PM 41.7 °F 35.2 °F 28.9 °F 61% 30.33 in 10.0 mi SSE 11.5 mph - N/A   Overcast
8:55 PM 38.3 °F 31.4 °F 28.0 °F 67% 30.34 in 10.0 mi South 10.4 mph - N/A   Partly Cloudy
9:55 PM 35.4 °F 27.8 °F 27.3 °F 72% 30.35 in 10.0 mi South 10.4 mph - N/A   Clear
10:55 PM 32.7 °F 24.5 °F 26.4 °F 78% 30.34 in 10.0 mi South 10.4 mph - N/A   Clear
11:55 PM 32.5 °F 22.7 °F 26.4 °F 78% 30.31 in 10.0 mi South 13.8 mph - N/A   Clear